SM5FGQ-2 Weather Reports


Display with metric or nautical units.
time (UTC)temp
F
wind
direction
speed
MPH
gust
MPH
rain 1hr
in
rain 24hr
in
rain mn
in
humidity
%
barometer
mb
20260506213021 38 135 1.0 3.0 0.00 0.01 0.01 60 1009.7
20260506210110 39 135 1.0 3.0 0.00 0.01 0.01 56 1009.6
20260506203144 40 135 1.0 2.0 0.00 0.01 0.01 52 1009.5
20260506200111 42 135 1.0 3.0 0.00 0.01 0.01 50 1009.4
20260506193044 44 157 0.0 3.0 0.00 0.01 0.01 48 1009.2
20260506190052 47 180 0.0 2.0 0.00 0.01 0.01 38 1009.1
20260506183022 49 180 1.0 6.0 0.00 0.01 0.01 34 1008.9
20260506180112 51 201 1.0 8.0 0.00 0.01 0.01 32 1008.8
20260506173104 53 181 2.0 8.0 0.00 0.01 0.01 31 1008.8
20260506170053 55 194 3.0 9.0 0.00 0.01 0.01 30 1008.8
20260506163124 56 181 4.0 11.0 0.00 0.01 0.01 29 1008.7
20260506160034 57 189 4.0 12.0 0.00 0.01 0.01 28 1008.6
20260506153024 58 188 4.0 10.0 0.00 0.01 0.01 27 1008.5
20260506150114 58 176 4.0 9.0 0.00 0.01 0.01 27 1008.6
20260506143104 58 195 4.0 10.0 0.00 0.01 0.01 27 1008.6
20260506140136 58 193 3.0 10.0 0.00 0.01 0.01 28 1008.5
20260506133046 58 112 4.0 13.0 0.00 0.01 0.01 28 1008.5
20260506130036 58 183 4.0 10.0 0.00 0.01 0.01 29 1008.5
20260506123048 58 161 4.0 15.0 0.00 0.01 0.01 28 1008.7
20260506120040 59 178 4.0 13.0 0.00 0.01 0.01 29 1008.8
20260506113109 58 227 2.0 6.0 0.00 0.01 0.01 28 1008.8
20260506110059 58 256 3.0 9.0 0.00 0.01 0.01 27 1009.0
20260506103050 58 190 2.0 6.0 0.00 0.01 0.01 29 1009.3
20260506100040 56 206 3.0 7.0 0.00 0.01 0.01 28 1009.3
20260506093031 55 313 3.0 8.0 0.00 0.01 0.01 28 1009.6
20260506090022 56 188 3.0 6.0 0.00 0.01 0.01 29 1009.7
20260506083113 56 148 2.0 6.0 0.00 0.01 0.01 30 1009.8
20260506080205 58 294 2.0 6.0 0.00 0.01 0.01 31 1009.8
20260506073054 62 315 1.0 3.0 0.01 0.01 0.01 32 1009.7
20260506050105 29 270 1.0 3.0 0.00 0.02 0.00 82 1009.4
20260506043055 27 275 1.0 2.0 0.00 0.02 0.00 82 1009.3
20260506040047 26 270 0.0 2.0 0.00 0.02 0.00 81 1009.1
20260506033036 26 270 1.0 3.0 0.00 0.02 0.00 80 1009.0
20260506030047 26 270 1.0 3.0 0.00 0.02 0.00 80 1008.9
20260506023016 26 270 1.0 2.0 0.00 0.02 0.00 78 1008.7
20260506020106 27 270 1.0 3.0 0.00 0.02 0.00 77 1008.5
20260506013057 27 270 0.0 2.0 0.00 0.02 0.00 75 1008.4
20260506010047 27 270 1.0 2.0 0.00 0.02 0.00 72 1008.1
20260506003038 28 270 1.0 2.0 0.00 0.02 0.00 70 1008.0
20260506000028 28 270 1.0 3.0 0.00 0.02 0.00 69 1008.0
20260505233018 30 270 1.0 3.0 0.00 0.02 0.00 66 1007.9
20260505230110 31 270 1.0 3.0 0.00 0.02 0.00 63 1007.8
20260505223058 32 270 1.0 3.0 0.00 0.02 0.00 61 1007.7
20260505220049 33 270 1.0 2.0 0.00 0.02 0.00 60 1007.6